Paris, TX

6:02 PM CDT on October 17, 2017 (GMT -0500)
Cox

Weather History for KPRX - April, 2013

Change the Weather History Date:

Wednesday, April 3, 2013

  Actual Average Record
Temperature  
Mean Temperature 46 °F -  
Max Temperature 53 °F 69 °F 82 °F (2011)
Min Temperature 42 °F 49 °F 37 °F (2009)
Degree Days  
Heating Degree Days 18    
Moisture  
Dew Point 37 °F    
Average Humidity 72    
Maximum Humidity 93    
Minimum Humidity 50    
Precipitation  
Precipitation 0.16 in - - ()
Sea Level Pressure  
Sea Level Pressure 30.11 in    
Wind  
Wind Speed 14 mph (ENE)    
Max Wind Speed 21 mph    
Max Gust Speed 25 mph    
Visibility 10 miles    
Events      
Averages and records for this station are not official NWS values.
T = Trace of Precipitation, MM = Missing Value Source: NWS Daily Summary

Daily Weather History Graph

Daily Weather History Graph

Search for Another Location

Airport or City:

Trip Planner

Search our weather history database for the weather conditions in past years. The results will help you decide how hot, cold, wet, or windy it might be!

Date:

Astronomy

Apr. 03, 2013 Rise Set
Actual Time 7:06 AM CDT 7:44 PM CDT
Civil Twilight 6:41 AM CDT 8:09 PM CDT
Nautical Twilight 6:11 AM CDT 8:38 PM CDT
Astronomical Twilight 5:41 AM CDT 9:09 PM CDT
Moon 2:29 AM CDT (4/3) 1:14 PM CDT (4/3)
Length of Visible Light 13h 28m
Length of Day
12h 37m
Last Quarter, 44% of the Moon is Illuminated
Apr 3
Last Quarter
Apr 10
New
Apr 18
First Quarter
Apr 25
Full
May 2
Last Quarter

Hourly Weather History & Observations

Time (CDT) Temp. Windchill Dew Point Humidity Pressure Visibility Wind Dir Wind Speed Gust Speed Precip Events Conditions
12:15 AM 46.4 °F 40.4 °F 42.8 °F 87% 30.06 in 10.0 mi East 13.8 mph 20.7 mph N/A   Overcast
12:35 AM 44.6 °F 36.4 °F 41.0 °F 87% 30.05 in 10.0 mi East 20.7 mph 24.2 mph N/A   Overcast
12:55 AM 44.6 °F 36.6 °F 42.8 °F 93% 30.04 in 10.0 mi East 19.6 mph 25.3 mph N/A   Overcast
1:15 AM 44.6 °F 36.9 °F 42.8 °F 93% 30.02 in 10.0 mi East 18.4 mph 24.2 mph N/A   Overcast
1:35 AM 44.6 °F 39.2 °F 42.8 °F 93% 30.05 in 10.0 mi NE 10.4 mph 16.1 mph 0.01 in   Overcast
1:55 AM 44.6 °F 38.4 °F 41.0 °F 87% 30.04 in 10.0 mi NE 12.7 mph - 0.01 in   Overcast
2:15 AM 44.6 °F 38.1 °F 42.8 °F 93% 30.07 in 10.0 mi NE 13.8 mph 17.3 mph N/A   Overcast
2:35 AM 44.6 °F 38.4 °F 41.0 °F 87% 30.07 in 10.0 mi ENE 12.7 mph 17.3 mph N/A   Overcast
2:55 AM 44.6 °F 38.1 °F 39.2 °F 81% 30.08 in 10.0 mi ENE 13.8 mph - N/A   Overcast
3:15 AM 44.6 °F 38.4 °F 42.8 °F 93% 30.07 in 9.0 mi NE 12.7 mph - N/A   Overcast
3:35 AM 42.8 °F 35.8 °F 39.2 °F 87% 30.08 in 9.0 mi NE 13.8 mph - N/A   Overcast
3:55 AM 42.8 °F 34.8 °F 39.2 °F 87% 30.08 in 9.0 mi ENE 17.3 mph - N/A   Overcast
4:15 AM 42.8 °F 34.5 °F 39.2 °F 87% 30.08 in 10.0 mi ENE 18.4 mph - N/A   Overcast
4:35 AM 42.8 °F 35.8 °F 39.2 °F 87% 30.09 in 10.0 mi ENE 13.8 mph 21.9 mph 0.01 in   Overcast
4:55 AM 42.8 °F 35.1 °F 39.2 °F 87% 30.09 in 10.0 mi ENE 16.1 mph 19.6 mph 0.01 in   Overcast
5:15 AM 42.8 °F 36.2 °F 39.2 °F 87% 30.09 in 10.0 mi ENE 12.7 mph - N/A   Overcast
5:35 AM 42.8 °F 34.5 °F 39.2 °F 87% 30.08 in 10.0 mi ENE 18.4 mph - 0.01 in   Overcast
5:55 AM 42.8 °F 35.4 °F 39.2 °F 87% 30.08 in 10.0 mi ENE 15.0 mph - 0.01 in   Overcast
6:15 AM 42.8 °F 35.8 °F 39.2 °F 87% 30.08 in 10.0 mi ENE 13.8 mph 23.0 mph N/A   Overcast
6:35 AM 42.8 °F 35.4 °F 39.2 °F 87% 30.09 in 10.0 mi ENE 15.0 mph - N/A   Overcast
6:55 AM 42.8 °F 35.1 °F 39.2 °F 87% 30.09 in 10.0 mi East 16.1 mph 23.0 mph N/A   Overcast
7:15 AM 42.8 °F 35.4 °F 37.4 °F 81% 30.09 in 10.0 mi East 15.0 mph 23.0 mph N/A   Overcast
7:35 AM 42.8 °F 34.5 °F 39.2 °F 87% 30.09 in 10.0 mi ENE 18.4 mph 24.2 mph N/A   Overcast
7:55 AM 42.8 °F 34.8 °F 37.4 °F 81% 30.11 in 10.0 mi East 17.3 mph 23.0 mph N/A   Overcast
8:15 AM 42.8 °F 34.5 °F 37.4 °F 81% 30.11 in 10.0 mi East 18.4 mph - N/A   Overcast
8:35 AM 42.8 °F 35.1 °F 37.4 °F 81% 30.11 in 10.0 mi ENE 16.1 mph - N/A   Overcast
8:55 AM 42.8 °F 36.6 °F 35.6 °F 76% 30.13 in 10.0 mi East 11.5 mph 21.9 mph N/A   Overcast
9:15 AM 42.8 °F 36.2 °F 35.6 °F 76% 30.16 in 10.0 mi NE 12.7 mph - N/A   Overcast
9:35 AM 42.8 °F 35.4 °F 35.6 °F 76% 30.14 in 10.0 mi East 15.0 mph - N/A   Overcast
9:55 AM 42.8 °F 35.1 °F 35.6 °F 76% 30.13 in 10.0 mi ENE 16.1 mph 20.7 mph N/A   Overcast
10:15 AM 44.6 °F 36.6 °F 35.6 °F 71% 30.13 in 10.0 mi East 19.6 mph 24.2 mph N/A   Overcast
10:35 AM 44.6 °F 37.4 °F 35.6 °F 71% 30.13 in 10.0 mi East 16.1 mph 23.0 mph N/A   Overcast
10:55 AM 44.6 °F 36.6 °F 35.6 °F 71% 30.12 in 10.0 mi East 19.6 mph - N/A   Mostly Cloudy
11:15 AM 46.4 °F 39.5 °F 37.4 °F 71% 30.13 in 10.0 mi ENE 17.3 mph 23.0 mph N/A   Mostly Cloudy
11:35 AM 48.2 °F - 37.4 °F 66% 30.13 in 10.0 mi ENE 15.0 mph 20.7 mph N/A   Overcast
11:55 AM 48.2 °F - 37.4 °F 66% 30.13 in 10.0 mi ENE 15.0 mph - N/A   Scattered Clouds
12:15 PM 51.8 °F - 37.4 °F 58% 30.12 in 10.0 mi ENE 12.7 mph 18.4 mph N/A   Mostly Cloudy
12:35 PM 51.8 °F - 37.4 °F 58% 30.12 in 10.0 mi ENE 15.0 mph 21.9 mph N/A   Mostly Cloudy
12:55 PM 51.8 °F - 37.4 °F 58% 30.12 in 10.0 mi East 12.7 mph - N/A   Overcast
1:15 PM 51.8 °F - 39.2 °F 62% 30.12 in 10.0 mi East 15.0 mph - N/A   Overcast
1:35 PM 51.8 °F - 37.4 °F 58% 30.12 in 10.0 mi East 11.5 mph 20.7 mph N/A   Overcast
1:55 PM 51.8 °F - 37.4 °F 58% 30.13 in 10.0 mi ENE 12.7 mph - N/A   Overcast
2:15 PM 51.8 °F - 37.4 °F 58% 30.13 in 10.0 mi East 11.5 mph - N/A   Overcast
2:35 PM 51.8 °F - 37.4 °F 58% 30.14 in 10.0 mi East 8.1 mph - N/A   Overcast
2:55 PM 51.8 °F - 37.4 °F 58% 30.14 in 10.0 mi ENE 9.2 mph - N/A   Overcast
3:15 PM 51.8 °F - 37.4 °F 58% 30.14 in 10.0 mi ENE 9.2 mph - N/A   Overcast
3:35 PM 51.8 °F - 37.4 °F 58% 30.13 in 10.0 mi ENE 12.7 mph - N/A   Overcast
3:55 PM 51.8 °F - 37.4 °F 58% 30.13 in 10.0 mi ENE 13.8 mph - N/A   Overcast
4:15 PM 51.8 °F - 37.4 °F 58% 30.10 in 10.0 mi ENE 17.3 mph - N/A   Overcast
4:35 PM 51.8 °F - 37.4 °F 58% 30.09 in 10.0 mi East 16.1 mph 20.7 mph N/A   Overcast
4:55 PM 51.8 °F - 35.6 °F 54% 30.10 in 10.0 mi ENE 15.0 mph 20.7 mph N/A   Overcast
5:15 PM 50.0 °F - 35.6 °F 58% 30.10 in 10.0 mi ENE 13.8 mph - N/A   Overcast
5:35 PM 50.0 °F - 35.6 °F 58% 30.11 in 10.0 mi East 13.8 mph - N/A   Overcast
5:55 PM 48.2 °F - 37.4 °F 66% 30.11 in 10.0 mi ENE 11.5 mph - N/A   Overcast
6:15 PM 48.2 °F - 35.6 °F 62% 30.11 in 10.0 mi ENE 10.4 mph - N/A   Overcast
6:35 PM 48.2 °F - 35.6 °F 62% 30.11 in 10.0 mi NE 13.8 mph - N/A   Overcast
6:55 PM 48.2 °F - 33.8 °F 58% 30.11 in 10.0 mi NE 10.4 mph - N/A   Overcast
7:15 PM 48.2 °F - 33.8 °F 58% 30.11 in 10.0 mi NE 11.5 mph - N/A   Overcast
7:35 PM 48.2 °F - 33.8 °F 58% 30.11 in 10.0 mi ENE 12.7 mph 17.3 mph N/A   Overcast
7:55 PM 48.2 °F - 30.2 °F 50% 30.12 in 10.0 mi NE 10.4 mph - N/A   Overcast
8:15 PM 46.4 °F 41.1 °F 32.0 °F 57% 30.12 in 10.0 mi East 11.5 mph 19.6 mph N/A   Overcast
8:35 PM 46.4 °F 39.8 °F 30.2 °F 53% 30.11 in 10.0 mi ENE 16.1 mph - N/A   Overcast
8:55 PM 46.4 °F 39.8 °F 30.2 °F 53% 30.11 in 10.0 mi East 16.1 mph 25.3 mph N/A   Overcast
9:15 PM 46.4 °F 40.4 °F 30.2 °F 53% 30.14 in 10.0 mi ENE 13.8 mph - N/A   Overcast
9:35 PM 44.6 °F 40.7 °F 33.8 °F 66% 30.16 in 10.0 mi ENE 6.9 mph - 0.01 in   Overcast
9:55 PM 44.6 °F 40.7 °F 35.6 °F 71% 30.17 in 10.0 mi NE 6.9 mph - 0.04 in   Overcast
10:15 PM 42.8 °F 39.3 °F 35.6 °F 76% 30.17 in 10.0 mi NE 5.8 mph - 0.01 in   Overcast
10:35 PM 42.8 °F 38.6 °F 37.4 °F 81% 30.17 in 10.0 mi NE 6.9 mph - 0.03 in   Overcast
10:55 PM 42.8 °F 37.0 °F 37.4 °F 81% 30.16 in 10.0 mi NE 10.4 mph - 0.05 in   Overcast
11:15 PM 42.8 °F 39.3 °F 35.6 °F 76% 30.18 in 10.0 mi NNE 5.8 mph - 0.01 in   Overcast
11:35 PM 42.8 °F 38.0 °F 37.4 °F 81% 30.17 in 10.0 mi NNE 8.1 mph - 0.02 in   Overcast
11:55 PM 42.8 °F 36.2 °F 37.4 °F 81% 30.15 in 10.0 mi NE 12.7 mph - 0.04 in   Overcast